Weather History for Resolute CS, NT

Change the Weather History Date:

Sunday, August 11, 2013

  Actual Average Record
Temperature  
Mean Temperature 46 °F -  
Max Temperature 52 °F - - ()
Min Temperature 39 °F - - ()
Degree Days  
Heating Degree Days 20    
Moisture  
Dew Point 37 °F    
Average Humidity 73    
Maximum Humidity 91    
Minimum Humidity 49    
Precipitation  
Precipitation 0.00 in - - ()
Sea Level Pressure  
Sea Level Pressure 29.94 in    
Wind  
Wind Speed 7 mph ()    
Max Wind Speed 13 mph    
Max Gust Speed -    
T = Trace of Precipitation, MM = Missing Value Source: Averaged Metar Reports

Daily Weather History Graph

Daily Weather History Graph

Search for Another Location

Airport:

Trip Planner

Search our weather history database for the weather conditions in past years. The results will help you decide how hot, cold, wet, or windy it might be!

Date:

Astronomy

Aug. 11, 2013 Rise Set
Actual Time 12:57 AM MDT 11:52 PM MDT
Civil Twilight Sun does not rise Sun does not rise
Nautical Twilight Sun does not rise Sun does not rise
Astronomical Twilight Sun does not rise Sun does not rise
Moon 12:01 PM MDT (8/11) 7:35 PM MDT (8/11)
Length of Visible Light 24h 00m
Length of Day
22h 54m
Waxing Crescent, 22% of the Moon is Illuminated
Aug 11
Waxing Crescent
Aug 14
First Quarter
Aug 20
Full
Aug 28
Last Quarter
Sep 5
New

Hourly Weather History & Observations

Time (MDT) Temp. Windchill Dew Point Humidity Pressure Visibility Wind Dir Wind Speed Gust Speed Precip Events Conditions
12:00 AM 45 °F - 32 °F 49% 29.91 in - South 11.5 mph - -  
12:00 AM 44.6 °F 38.8 °F 31.8 °F 61% 29.91 in - South 11.5 mph - N/A   Unknown
1:00 AM 44.1 °F 38.6 °F 31.5 °F 61% 29.91 in - SE 10.4 mph - N/A   Unknown
2:00 AM 44.2 °F 38.8 °F 33.1 °F 65% 29.91 in - SE 10.4 mph - N/A   Unknown
3:00 AM 41.5 °F 35.0 °F 32.0 °F 69% 29.91 in - SE 11.5 mph - N/A   Unknown
4:00 AM 42.4 °F 37.5 °F 34.9 °F 75% 29.90 in - SSE 8.1 mph - N/A   Unknown
5:00 AM 41.4 °F 35.2 °F 35.1 °F 78% 29.91 in - ESE 10.4 mph - N/A   Unknown
6:00 AM 42 °F - 36 °F 72% 29.90 in - SE 8.1 mph - -  
6:00 AM 42.3 °F 37.3 °F 36.1 °F 79% 29.90 in - SE 8.1 mph - N/A   Unknown
7:00 AM 42.1 °F 37.7 °F 36.7 °F 81% 29.91 in - SE 6.9 mph - N/A   Unknown
8:00 AM 43.0 °F 39.5 °F 37.4 °F 81% 29.91 in - SE 5.8 mph - N/A   Unknown
9:00 AM 43.9 °F - 38.1 °F 80% 29.91 in - South 1.2 mph - N/A   Unknown
10:00 AM 40.3 °F 37.1 °F 37.9 °F 91% 29.92 in - NW 4.6 mph - N/A   Unknown
11:00 AM 40.5 °F 37.3 °F 38.1 °F 91% 29.93 in - NW 4.6 mph - N/A   Unknown
12:00 PM 40 °F - 37 °F 86% 29.94 in - WNW 4.6 mph - -  
12:00 PM 40.5 °F 37.3 °F 37.2 °F 88% 29.94 in - WNW 4.6 mph - N/A   Unknown
1:00 PM 44.8 °F 42.4 °F 40.3 °F 84% 29.95 in - North 4.6 mph - N/A   Unknown
2:00 PM 49.5 °F - 44.8 °F 84% 29.96 in - NE 12.7 mph - N/A   Unknown
3:00 PM 50.9 °F - 45.1 °F 81% 29.97 in - NNE 10.4 mph - N/A   Unknown
4:00 PM 50.7 °F - 45.0 °F 81% 29.99 in - NNE 10.4 mph - N/A   Unknown
5:00 PM 47.5 °F - 39.7 °F 75% 30.00 in - SE 3.5 mph - N/A   Unknown
6:00 PM 51 °F - 38 °F 52% 29.99 in - South 3.5 mph - -  
6:00 PM 51.4 °F - 38.5 °F 61% 29.99 in - South 3.5 mph - N/A   Unknown
7:00 PM 50.9 °F - 34.0 °F 52% 29.99 in - NNE 8.1 mph - N/A   Unknown
8:00 PM 49.3 °F - 35.1 °F 58% 29.99 in - NNE 8.1 mph - N/A   Unknown
9:00 PM 47.7 °F - 36.5 °F 65% 29.98 in - NNE 5.8 mph - N/A   Unknown
10:00 PM 45.3 °F 44.0 °F 36.7 °F 72% 29.98 in - NE 3.5 mph - N/A   Unknown
11:00 PM 45.0 °F - 35.8 °F 70% 29.97 in - NE 2.3 mph - N/A   Unknown